QPF
0.00 0.00 0.00 0.00 0.00 0.00 0.01 0.01 0.01 0.01 0.01 0.01 0.00 0.00 0.00 0.01 0.01 0.01 0.01 0.01 0.02 0.04 0.02 0.02 0.02 0.03 0.03 0.03 0.03 0.03 0.03 0.02 0.02 0.02 0.03 0.04 0.05 0.03 0.03 0.03 0.04 0.04 0.05 0.05
0.01 0.00 0.01 0.01 0.01 0.01 0.01 0.01 0.01 0.01 0.01 0.01 0.01 0.01 0.01 0.01 0.01 0.00 0.00 0.01 0.02 0.04 0.03 0.01 0.01 0.02 0.02 0.02 0.02 0.02 0.01 0.01 0.01 0.01 0.02 0.03 0.03 0.03 0.03 0.02 0.03 0.03 0.04 0.04
0.01 0.01 0.02 0.01 0.00 0.00 0.01 0.01 0.01 0.01 0.01 0.01 0.00 0.00 0.00 0.00 0.01 0.01 0.01 0.01 0.02 0.04 0.03 0.01 0.00 0.01 0.02 0.02 0.01 0.01 0.01 0.01 0.01 0.01 0.01 0.01 0.02 0.03 0.03 0.02 0.03 0.03 0.02 0.02
0.01 0.01 0.03 0.01 0.00 0.00 0.02 0.02 0.01 0.01 0.01 0.00 0.00 0.00 0.00 0.00 0.01 0.02 0.02 0.02 0.03 0.05 0.05 0.02 0.01 0.01 0.02 0.02 0.01 0.01 0.01 0.01 0.01 0.01 0.01 0.02 0.03 0.03 0.02 0.02 0.02 0.02 0.01 0.02
0.02 0.02 0.01 0.01 0.00 0.00 0.01 0.03 0.01 0.01 0.00 0.00 0.01 0.01 0.01 0.01 0.01 0.02 0.02 0.02 0.03 0.04 0.04 0.03 0.02 0.02 0.02 0.03 0.02 0.01 0.01 0.01 0.01 0.02 0.03 0.03 0.03 0.03 0.03 0.03 0.03 0.02 0.02 0.02
0.02 0.02 0.01 0.01 0.00 0.01 0.02 0.04 0.01 0.01 0.00 0.01 0.01 0.01 0.01 0.01 0.01 0.02 0.02 0.02 0.03 0.04 0.04 0.04 0.04 0.03 0.02 0.03 0.03 0.02 0.02 0.02 0.02 0.03 0.03 0.03 0.03 0.03 0.03 0.04 0.04 0.05 0.04 0.03
0.02 0.02 0.01 0.01 0.00 0.01 0.03 0.03 0.01 0.01 0.01 0.01 0.01 0.01 0.01 0.01 0.01 0.01 0.01 0.01 0.02 0.02 0.02 0.02 0.03 0.02 0.02 0.02 0.03 0.02 0.02 0.02 0.03 0.04 0.04 0.04 0.03 0.03 0.03 0.04 0.06 0.06 0.05 0.04
0.02 0.02 0.02 0.01 0.02 0.03 0.03 0.02 0.01 0.01 0.01 0.01 0.01 0.01 0.01 0.01 0.01 0.01 0.01 0.01 0.01 0.01 0.01 0.01 0.01 0.02 0.02 0.03 0.03 0.04 0.03 0.03 0.03 0.04 0.05 0.05 0.04 0.04 0.04 0.06 0.06 0.05 0.04 0.03
0.03 0.03 0.02 0.02 0.02 0.02 0.02 0.02 0.02 0.01 0.02 0.02 0.01 0.01 0.01 0.01 0.01 0.01 0.01 0.00 0.00 0.01 0.01 0.01 0.01 0.01 0.02 0.04 0.04 0.05 0.06 0.06 0.07 0.06 0.07 0.07 0.06 0.05 0.05 0.05 0.05 0.04 0.03 0.02
0.04 0.03 0.03 0.02 0.03 0.03 0.03 0.02 0.02 0.02 0.02 0.02 0.02 0.01 0.01 0.01 0.01 0.01 0.00 0.00 0.00 0.01 0.01 0.01 0.01 0.01 0.02 0.03 0.04 0.05 0.07 0.09 0.09 0.07 0.07 0.08 0.07 0.06 0.06 0.05 0.04 0.04 0.03 0.02
0.05 0.04 0.03 0.02 0.03 0.03 0.03 0.03 0.03 0.02 0.01 0.01 0.02 0.02 0.01 0.01 0.01 0.01 0.01 0.01 0.02 0.02 0.01 0.00 0.00 0.01 0.01 0.03 0.04 0.04 0.05 0.07 0.07 0.07 0.07 0.06 0.05 0.04 0.04 0.03 0.03 0.02 0.01 0.01
0.09 0.07 0.06 0.05 0.05 0.06 0.06 0.07 0.06 0.03 0.01 0.01 0.02 0.02 0.02 0.02 0.01 0.02 0.02 0.02 0.04 0.04 0.01 0.00 0.01 0.01 0.01 0.02 0.03 0.03 0.03 0.03 0.04 0.04 0.04 0.04 0.02 0.01 0.01 0.01 0.01 0.01 0.01 0.01
0.09 0.08 0.08 0.06 0.07 0.07 0.09 0.07 0.03 0.03 0.02 0.02 0.02 0.02 0.02 0.02 0.01 0.02 0.03 0.04 0.07 0.06 0.02 0.01 0.01 0.01 0.02 0.02 0.02 0.02 0.02 0.02 0.02 0.02 0.01 0.01 0.01 0.01 0.01 0.01 0.00 0.00 0.01 0.01
0.07 0.08 0.09 0.09 0.11 0.11 0.10 0.07 0.04 0.04 0.03 0.02 0.01 0.01 0.02 0.02 0.02 0.02 0.03 0.04 0.06 0.05 0.02 0.02 0.02 0.03 0.03 0.02 0.02 0.02 0.02 0.02 0.02 0.01 0.01 0.01 0.01 0.01 0.01 0.01 0.01 0.01 0.01 0.01
0.05 0.07 0.09 0.10 0.10 0.10 0.09 0.07 0.04 0.02 0.02 0.02 0.02 0.02 0.02 0.02 0.02 0.02 0.03 0.05 0.05 0.04 0.03 0.03 0.03 0.03 0.03 0.03 0.03 0.02 0.02 0.02 0.02 0.01 0.01 0.01 0.02 0.01 0.01 0.01 0.01 0.01 0.02 0.02
0.05 0.05 0.06 0.05 0.06 0.07 0.07 0.05 0.05 0.04 0.04 0.03 0.04 0.04 0.03 0.03 0.03 0.04 0.04 0.04 0.04 0.04 0.04 0.03 0.02 0.02 0.02 0.02 0.02 0.01 0.01 0.01 0.01 0.02 0.02 0.02 0.02 0.01 0.01 0.02 0.02 0.02 0.02 0.03
0.07 0.08 0.08 0.06 0.05 0.06 0.08 0.09 0.08 0.08 0.07 0.04 0.04 0.03 0.03 0.03 0.04 0.04 0.05 0.05 0.04 0.04 0.05 0.04 0.04 0.03 0.03 0.03 0.02 0.01 0.01 0.01 0.01 0.01 0.01 0.01 0.01 0.01 0.02 0.02 0.02 0.02 0.02 0.02
0.07 0.10 0.09 0.07 0.05 0.04 0.05 0.08 0.10 0.09 0.08 0.06 0.04 0.03 0.03 0.03 0.04 0.04 0.04 0.04 0.05 0.06 0.06 0.06 0.05 0.04 0.03 0.03 0.02 0.02 0.01 0.01 0.01 0.00 0.01 0.01 0.01 0.01 0.01 0.02 0.02 0.02 0.01 0.01
0.07 0.08 0.08 0.07 0.06 0.03 0.03 0.05 0.07 0.08 0.07 0.05 0.03 0.03 0.03 0.04 0.05 0.04 0.04 0.03 0.04 0.05 0.05 0.04 0.04 0.04 0.04 0.03 0.03 0.03 0.03 0.02 0.02 0.02 0.02 0.02 0.02 0.02 0.02 0.02 0.02 0.02 0.01 0.01
0.05 0.06 0.05 0.05 0.04 0.03 0.02 0.01 0.02 0.04 0.05 0.05 0.04 0.03 0.03 0.04 0.05 0.05 0.04 0.03 0.03 0.03 0.03 0.02 0.02 0.04 0.05 0.03 0.03 0.02 0.02 0.02 0.02 0.02 0.03 0.03 0.03 0.03 0.02 0.02 0.02 0.01 0.01 0.01
0.05 0.05 0.05 0.04 0.04 0.04 0.03 0.02 0.01 0.01 0.02 0.03 0.04 0.04 0.03 0.04 0.04 0.05 0.04 0.03 0.03 0.03 0.03 0.02 0.02 0.03 0.05 0.04 0.03 0.02 0.02 0.02 0.01 0.01 0.01 0.01 0.01 0.02 0.01 0.01 0.01 0.01 0.01 0.01
0.03 0.04 0.05 0.04 0.04 0.04 0.04 0.03 0.02 0.02 0.02 0.02 0.03 0.03 0.03 0.03 0.03 0.04 0.04 0.03 0.03 0.03 0.03 0.03 0.02 0.03 0.04 0.04 0.03 0.02 0.02 0.02 0.02 0.02 0.01 0.01 0.01 0.01 0.01 0.01 0.02 0.02 0.01 0.01
0.03 0.04 0.05 0.05 0.05 0.04 0.04 0.04 0.04 0.03 0.02 0.02 0.02 0.02 0.02 0.03 0.03 0.03 0.03 0.03 0.03 0.03 0.03 0.05 0.06 0.05 0.05 0.04 0.03 0.03 0.02 0.02 0.02 0.02 0.01 0.01 0.01 0.01 0.01 0.01 0.02 0.02 0.02 0.02
0.02 0.03 0.04 0.04 0.04 0.04 0.04 0.04 0.05 0.04 0.03 0.03 0.03 0.03 0.03 0.03 0.02 0.02 0.02 0.03 0.03 0.03 0.04 0.05 0.07 0.06 0.07 0.07 0.06 0.05 0.04 0.03 0.02 0.02 0.01 0.02 0.01 0.01 0.01 0.02 0.02 0.02 0.03 0.03
0.01 0.01 0.02 0.03 0.04 0.05 0.05 0.04 0.04 0.04 0.05 0.06 0.06 0.05 0.03 0.02 0.02 0.03 0.04 0.04 0.04 0.03 0.03 0.05 0.05 0.05 0.05 0.06 0.06 0.06 0.06 0.05 0.04 0.03 0.03 0.02 0.02 0.02 0.02 0.02 0.02 0.02 0.02 0.02
0.01 0.01 0.02 0.02 0.03 0.03 0.04 0.04 0.04 0.04 0.05 0.06 0.06 0.06 0.04 0.03 0.03 0.03 0.04 0.05 0.05 0.05 0.05 0.05 0.04 0.04 0.04 0.04 0.04 0.05 0.06 0.06 0.06 0.05 0.04 0.03 0.03 0.03 0.02 0.02 0.02 0.02 0.02 0.02
0.01 0.01 0.01 0.01 0.01 0.01 0.02 0.02 0.03 0.04 0.04 0.03 0.04 0.04 0.05 0.05 0.04 0.03 0.04 0.05 0.05 0.05 0.04 0.05 0.04 0.04 0.04 0.04 0.04 0.05 0.06 0.07 0.07 0.06 0.05 0.04 0.03 0.03 0.02 0.02 0.02 0.02 0.02 0.01
MSLP
1007.23 1007.09 1006.88 1006.60 1006.22 1005.73 1005.13 1004.44 1003.67 1002.86 1002.05 1001.30 1000.67 1000.21 999.97 999.98 1000.25 1000.76 1001.48 1002.37 1003.36 1004.39 1005.43 1006.42 1007.36 1008.23 1009.06 1009.85 1010.63 1011.40 1012.16 1012.91 1013.62 1014.26 1014.79 1015.19 1015.46 1015.59 1015.59 1015.51 1015.37 1015.21 1015.06 1014.94
1006.74 1006.52 1006.20 1005.77 1005.24 1004.62 1003.93 1003.20 1002.45 1001.73 1001.07 1000.50 1000.07 999.81 999.74 999.87 1000.21 1000.74 1001.43 1002.27 1003.19 1004.16 1005.15 1006.14 1007.09 1008.01 1008.90 1009.77 1010.61 1011.42 1012.21 1012.95 1013.63 1014.21 1014.69 1015.03 1015.25 1015.34 1015.32 1015.23 1015.08 1014.92 1014.77 1014.64
1005.92 1005.62 1005.20 1004.65 1004.00 1003.28 1002.53 1001.79 1001.09 1000.48 999.97 999.59 999.37 999.31 999.41 999.67 1000.08 1000.63 1001.31 1002.09 1002.95 1003.87 1004.83 1005.81 1006.79 1007.76 1008.72 1009.65 1010.56 1011.42 1012.22 1012.95 1013.60 1014.13 1014.54 1014.83 1014.99 1015.04 1015.01 1014.90 1014.76 1014.60 1014.44 1014.29
1004.75 1004.38 1003.87 1003.23 1002.50 1001.71 1000.94 1000.22 999.59 999.10 998.76 998.58 998.57 998.70 998.97 999.35 999.85 1000.44 1001.11 1001.86 1002.69 1003.57 1004.51 1005.48 1006.49 1007.51 1008.53 1009.52 1010.48 1011.37 1012.18 1012.90 1013.50 1013.97 1014.32 1014.55 1014.66 1014.68 1014.62 1014.51 1014.38 1014.22 1014.06 1013.90
1003.33 1002.89 1002.31 1001.60 1000.81 1000.00 999.23 998.56 998.03 997.67 997.50 997.51 997.70 998.02 998.46 998.98 999.57 1000.22 1000.91 1001.66 1002.46 1003.32 1004.24 1005.22 1006.25 1007.31 1008.36 1009.40 1010.38 1011.28 1012.08 1012.76 1013.31 1013.73 1014.01 1014.18 1014.25 1014.24 1014.17 1014.07 1013.94 1013.80 1013.65 1013.49
1001.87 1001.34 1000.69 999.93 999.11 998.30 997.56 996.96 996.53 996.31 996.30 996.50 996.87 997.37 997.97 998.63 999.32 1000.03 1000.76 1001.53 1002.33 1003.19 1004.11 1005.09 1006.12 1007.19 1008.27 1009.31 1010.29 1011.18 1011.94 1012.57 1013.06 1013.40 1013.62 1013.74 1013.77 1013.74 1013.67 1013.59 1013.48 1013.37 1013.25 1013.11
1000.55 999.94 999.22 998.43 997.60 996.81 996.11 995.58 995.26 995.16 995.30 995.65 996.19 996.85 997.59 998.37 999.17 999.96 1000.75 1001.54 1002.36 1003.23 1004.14 1005.12 1006.15 1007.21 1008.27 1009.29 1010.24 1011.08 1011.79 1012.35 1012.76 1013.04 1013.20 1013.27 1013.27 1013.24 1013.18 1013.12 1013.06 1012.99 1012.90 1012.80
999.56 998.87 998.11 997.29 996.47 995.70 995.06 994.60 994.36 994.37 994.63 995.10 995.76 996.55 997.42 998.31 999.20 1000.07 1000.92 1001.76 1002.60 1003.47 1004.39 1005.35 1006.36 1007.39 1008.40 1009.37 1010.26 1011.03 1011.66 1012.14 1012.48 1012.69 1012.80 1012.83 1012.82 1012.79 1012.75 1012.73 1012.72 1012.70 1012.67 1012.61
999.01 998.27 997.47 996.65 995.84 995.11 994.52 994.12 993.95 994.04 994.37 994.93 995.68 996.56 997.51 998.50 999.47 1000.41 1001.31 1002.19 1003.06 1003.95 1004.86 1005.79 1006.76 1007.73 1008.68 1009.57 1010.37 1011.05 1011.60 1012.00 1012.26 1012.41 1012.47 1012.47 1012.46 1012.44 1012.44 1012.47 1012.51 1012.55 1012.58 1012.57
998.91 998.14 997.35 996.54 995.77 995.08 994.54 994.19 994.07 994.19 994.57 995.18 995.97 996.90 997.91 998.94 999.97 1000.97 1001.93 1002.84 1003.74 1004.62 1005.52 1006.42 1007.33 1008.23 1009.09 1009.88 1010.59 1011.17 1011.62 1011.94 1012.13 1012.23 1012.25 1012.24 1012.23 1012.24 1012.27 1012.35 1012.44 1012.54 1012.62 1012.67
999.18 998.43 997.68 996.92 996.20 995.57 995.07 994.76 994.67 994.81 995.20 995.81 996.61 997.55 998.58 999.64 1000.70 1001.74 1002.72 1003.67 1004.58 1005.46 1006.32 1007.18 1008.02 1008.83 1009.59 1010.28 1010.88 1011.36 1011.72 1011.96 1012.10 1012.15 1012.15 1012.14 1012.14 1012.17 1012.24 1012.36 1012.50 1012.64 1012.77 1012.85
999.67 999.00 998.33 997.66 997.02 996.46 996.01 995.73 995.65 995.80 996.17 996.76 997.54 998.45 999.47 1000.53 1001.60 1002.65 1003.65 1004.61 1005.51 1006.38 1007.21 1008.00 1008.76 1009.48 1010.14 1010.72 1011.21 1011.60 1011.87 1012.05 1012.14 1012.17 1012.16 1012.15 1012.17 1012.22 1012.32 1012.46 1012.63 1012.80 1012.95 1013.04
1000.23 999.68 999.13 998.58 998.04 997.57 997.19 996.95 996.88 997.02 997.36 997.91 998.65 999.53 1000.51 1001.55 1002.60 1003.64 1004.64 1005.59 1006.48 1007.31 1008.09 1008.82 1009.50 1010.11 1010.67 1011.15 1011.54 1011.84 1012.05 1012.17 1012.23 1012.24 1012.23 1012.23 1012.26 1012.33 1012.45 1012.60 1012.78 1012.96 1013.10 1013.19
1000.71 1000.33 999.93 999.53 999.12 998.76 998.46 998.27 998.23 998.36 998.67 999.18 999.87 1000.69 1001.63 1002.63 1003.65 1004.66 1005.64 1006.56 1007.42 1008.20 1008.92 1009.57 1010.16 1010.68 1011.14 1011.52 1011.82 1012.05 1012.20 1012.29 1012.33 1012.34 1012.34 1012.35 1012.39 1012.46 1012.58 1012.73 1012.90 1013.05 1013.18 1013.24
1001.06 1000.86 1000.64 1000.40 1000.14 999.90 999.70 999.58 999.57 999.71 1000.01 1000.49 1001.13 1001.90 1002.78 1003.73 1004.71 1005.68 1006.62 1007.50 1008.30 1009.03 1009.67 1010.24 1010.74 1011.16 1011.52 1011.82 1012.04 1012.21 1012.32 1012.39 1012.42 1012.44 1012.45 1012.47 1012.52 1012.59 1012.70 1012.83 1012.96 1013.09 1013.17 1013.20
1001.27 1001.24 1001.20 1001.13 1001.03 1000.92 1000.83 1000.80 1000.85 1001.02 1001.33 1001.79 1002.39 1003.13 1003.96 1004.85 1005.78 1006.69 1007.57 1008.39 1009.13 1009.78 1010.35 1010.83 1011.23 1011.57 1011.84 1012.06 1012.23 1012.35 1012.43 1012.49 1012.52 1012.55 1012.57 1012.61 1012.66 1012.72 1012.81 1012.90 1012.99 1013.07 1013.10 1013.08
1001.37 1001.51 1001.62 1001.71 1001.77 1001.80 1001.84 1001.91 1002.04 1002.27 1002.60 1003.07 1003.65 1004.35 1005.14 1005.99 1006.85 1007.71 1008.52 1009.27 1009.93 1010.50 1010.98 1011.37 1011.69 1011.94 1012.14 1012.29 1012.41 1012.50 1012.57 1012.62 1012.66 1012.70 1012.74 1012.78 1012.83 1012.88 1012.94 1012.99 1013.03 1013.04 1013.02 1012.95
1001.44 1001.70 1001.95 1002.18 1002.37 1002.55 1002.71 1002.90 1003.13 1003.43 1003.81 1004.30 1004.90 1005.58 1006.34 1007.13 1007.95 1008.74 1009.48 1010.15 1010.73 1011.22 1011.62 1011.93 1012.16 1012.34 1012.47 1012.57 1012.64 1012.71 1012.76 1012.82 1012.87 1012.92 1012.97 1013.02 1013.06 1013.10 1013.12 1013.13 1013.11 1013.07 1012.99 1012.87
1001.55 1001.89 1002.24 1002.58 1002.89 1003.19 1003.48 1003.78 1004.11 1004.50 1004.96 1005.49 1006.11 1006.79 1007.53 1008.29 1009.05 1009.78 1010.46 1011.06 1011.56 1011.97 1012.29 1012.53 1012.69 1012.81 1012.88 1012.93 1012.98 1013.02 1013.07 1013.12 1013.18 1013.24 1013.30 1013.35 1013.38 1013.39 1013.39 1013.35 1013.28 1013.19 1013.06 1012.90
1001.76 1002.14 1002.55 1002.95 1003.36 1003.76 1004.16 1004.57 1005.00 1005.48 1006.01 1006.60 1007.25 1007.95 1008.68 1009.41 1010.14 1010.82 1011.43 1011.97 1012.41 1012.76 1013.01 1013.19 1013.30 1013.36 1013.39 1013.41 1013.42 1013.45 1013.48 1013.53 1013.59 1013.65 1013.71 1013.75 1013.77 1013.77 1013.73 1013.66 1013.55 1013.41 1013.24 1013.04
1002.12 1002.50 1002.91 1003.36 1003.82 1004.29 1004.78 1005.28 1005.81 1006.37 1006.97 1007.61 1008.30 1009.01 1009.74 1010.46 1011.15 1011.79 1012.37 1012.85 1013.25 1013.55 1013.75 1013.88 1013.95 1013.98 1013.97 1013.96 1013.95 1013.95 1013.98 1014.01 1014.06 1014.11 1014.16 1014.20 1014.21 1014.18 1014.12 1014.03 1013.89 1013.72 1013.52 1013.30
1002.65 1002.99 1003.39 1003.84 1004.33 1004.84 1005.38 1005.94 1006.53 1007.15 1007.81 1008.50 1009.21 1009.93 1010.66 1011.37 1012.04 1012.65 1013.19 1013.65 1014.01 1014.27 1014.46 1014.56 1014.60 1014.60 1014.58 1014.54 1014.51 1014.49 1014.49 1014.51 1014.54 1014.57 1014.61 1014.63 1014.62 1014.59 1014.51 1014.40 1014.25 1014.07 1013.86 1013.62
1003.37 1003.66 1004.02 1004.44 1004.92 1005.44 1005.99 1006.59 1007.21 1007.86 1008.54 1009.25 1009.97 1010.69 1011.41 1012.10 1012.75 1013.34 1013.86 1014.29 1014.63 1014.89 1015.06 1015.15 1015.18 1015.17 1015.13 1015.07 1015.02 1014.98 1014.95 1014.95 1014.95 1014.97 1014.98 1014.99 1014.97 1014.93 1014.85 1014.74 1014.59 1014.41 1014.20 1013.97
1004.29 1004.52 1004.83 1005.21 1005.64 1006.14 1006.68 1007.26 1007.88 1008.52 1009.20 1009.89 1010.59 1011.30 1011.99 1012.65 1013.27 1013.84 1014.33 1014.75 1015.08 1015.33 1015.50 1015.59 1015.63 1015.61 1015.57 1015.50 1015.43 1015.37 1015.32 1015.28 1015.26 1015.25 1015.24 1015.23 1015.21 1015.17 1015.10 1015.00 1014.87 1014.71 1014.52 1014.30
1005.41 1005.58 1005.83 1006.15 1006.54 1006.98 1007.47 1008.01 1008.59 1009.19 1009.83 1010.47 1011.13 1011.79 1012.43 1013.04 1013.63 1014.15 1014.63 1015.03 1015.35 1015.59 1015.77 1015.87 1015.91 1015.90 1015.85 1015.79 1015.71 1015.62 1015.55 1015.49 1015.44 1015.41 1015.39 1015.37 1015.35 1015.31 1015.26 1015.19 1015.08 1014.95 1014.78 1014.59
1006.68 1006.81 1007.01 1007.28 1007.60 1007.98 1008.41 1008.88 1009.39 1009.93 1010.48 1011.06 1011.64 1012.22 1012.79 1013.34 1013.86 1014.34 1014.78 1015.15 1015.46 1015.70 1015.87 1015.98 1016.03 1016.03 1016.00 1015.93 1015.85 1015.76 1015.67 1015.60 1015.54 1015.49 1015.46 1015.44 1015.42 1015.40 1015.36 1015.31 1015.24 1015.14 1015.01 1014.84
1008.04 1008.15 1008.31 1008.53 1008.80 1009.12 1009.48 1009.87 1010.29 1010.74 1011.21 1011.69 1012.17 1012.66 1013.15 1013.61 1014.06 1014.48 1014.86 1015.19 1015.47 1015.70 1015.87 1015.99 1016.05 1016.06 1016.04 1015.99 1015.91 1015.83 1015.75 1015.67 1015.61 1015.56 1015.53 1015.51 1015.50 1015.49 1015.48 1015.45 1015.40 1015.32 1015.21 1015.06
Thickness
5713 5721 5722 5719 5719 5722 5720 5720 5717 5723 5726 5728 5728 5727 5728 5728 5726 5723 5722 5721 5719 5717 5715 5713 5711 5709 5708 5706 5704 5701 5698 5695 5692 5690 5687 5685 5682 5681 5679 5677 5675 5674 5671 5669
5700 5713 5715 5710 5714 5716 5715 5716 5717 5718 5718 5725 5723 5723 5720 5719 5717 5714 5713 5713 5712 5709 5707 5705 5703 5702 5700 5698 5695 5693 5691 5689 5686 5683 5681 5679 5676 5675 5673 5671 5670 5668 5666 5664
5690 5704 5702 5695 5705 5707 5707 5711 5710 5706 5711 5714 5710 5710 5710 5710 5709 5707 5705 5704 5703 5701 5699 5697 5696 5695 5693 5691 5689 5686 5684 5683 5681 5679 5676 5674 5672 5670 5667 5666 5665 5663 5661 5659
5685 5685 5674 5694 5712 5708 5703 5703 5706 5705 5706 5704 5701 5702 5704 5704 5702 5700 5698 5697 5695 5694 5692 5691 5690 5688 5687 5686 5683 5681 5679 5677 5675 5673 5671 5669 5666 5664 5663 5661 5659 5657 5655 5654
5676 5677 5681 5689 5697 5697 5692 5691 5697 5695 5694 5694 5694 5696 5696 5696 5696 5693 5692 5690 5688 5687 5686 5684 5683 5682 5680 5678 5677 5676 5674 5672 5670 5667 5664 5662 5660 5658 5656 5654 5653 5652 5651 5650
5671 5667 5668 5681 5693 5699 5690 5679 5689 5689 5686 5685 5686 5684 5686 5686 5686 5686 5684 5683 5681 5680 5678 5677 5676 5675 5673 5672 5670 5669 5668 5666 5664 5662 5659 5656 5654 5653 5651 5650 5649 5648 5648 5646
5664 5663 5671 5679 5685 5686 5669 5672 5682 5682 5679 5678 5677 5678 5678 5677 5677 5677 5676 5675 5674 5673 5671 5670 5669 5668 5665 5665 5664 5664 5663 5660 5658 5656 5653 5651 5649 5648 5646 5646 5645 5643 5642 5641
5658 5656 5658 5669 5671 5666 5665 5672 5673 5672 5672 5670 5669 5669 5668 5668 5668 5668 5667 5666 5666 5665 5664 5663 5662 5661 5659 5657 5657 5657 5655 5652 5650 5648 5647 5646 5643 5642 5641 5640 5638 5637 5636 5634
5650 5650 5654 5658 5658 5661 5663 5662 5663 5663 5663 5662 5661 5660 5660 5659 5659 5659 5659 5658 5658 5658 5657 5656 5655 5654 5651 5650 5650 5648 5646 5644 5642 5641 5639 5638 5636 5635 5634 5633 5633 5632 5631 5629
5636 5642 5644 5646 5650 5651 5653 5652 5655 5656 5655 5654 5652 5652 5651 5651 5650 5650 5651 5651 5651 5651 5650 5648 5648 5647 5645 5644 5642 5640 5638 5636 5635 5633 5632 5631 5630 5629 5628 5627 5625 5624 5623 5622
5626 5631 5634 5636 5638 5640 5643 5645 5647 5648 5649 5648 5647 5645 5644 5643 5643 5643 5643 5644 5644 5643 5642 5641 5641 5639 5638 5636 5634 5632 5630 5628 5627 5627 5626 5623 5623 5621 5620 5619 5616 5613 5614 5614
5617 5621 5621 5623 5628 5632 5633 5635 5638 5640 5640 5641 5641 5638 5637 5635 5635 5635 5634 5635 5635 5634 5634 5633 5633 5632 5630 5628 5626 5624 5623 5622 5622 5621 5619 5618 5616 5615 5611 5609 5606 5603 5602 5601
5610 5614 5617 5618 5621 5623 5624 5626 5629 5631 5631 5631 5632 5631 5630 5628 5627 5627 5626 5626 5626 5626 5626 5626 5625 5624 5623 5621 5619 5617 5616 5615 5615 5615 5613 5612 5610 5609 5607 5604 5600 5597 5596 5594
5605 5607 5609 5610 5611 5614 5616 5619 5622 5622 5623 5622 5622 5622 5621 5620 5619 5619 5619 5618 5618 5618 5618 5617 5617 5615 5615 5614 5612 5611 5610 5608 5607 5607 5606 5606 5604 5603 5603 5602 5601 5599 5594 5589
5597 5601 5601 5602 5603 5604 5607 5610 5611 5611 5612 5612 5612 5612 5611 5611 5610 5610 5611 5611 5610 5610 5609 5608 5607 5607 5607 5607 5605 5604 5603 5602 5600 5600 5599 5599 5599 5599 5599 5597 5596 5595 5594 5590
5591 5593 5594 5595 5595 5596 5599 5601 5602 5601 5602 5602 5602 5602 5602 5602 5602 5602 5603 5603 5602 5601 5600 5600 5599 5599 5599 5599 5598 5597 5596 5592 5591 5593 5594 5594 5593 5593 5593 5592 5590 5589 5588 5587
5581 5583 5585 5586 5588 5590 5591 5592 5593 5594 5594 5594 5593 5594 5594 5594 5594 5595 5594 5594 5594 5593 5592 5591 5591 5591 5591 5591 5591 5592 5591 5589 5584 5587 5588 5588 5587 5587 5587 5585 5585 5584 5584 5581
5576 5577 5578 5580 5582 5583 5584 5584 5585 5585 5585 5586 5587 5587 5587 5586 5587 5587 5587 5587 5586 5585 5585 5584 5583 5583 5583 5584 5583 5584 5585 5585 5584 5584 5583 5582 5582 5582 5581 5580 5580 5579 5579 5578
5570 5571 5572 5573 5575 5576 5576 5576 5577 5577 5578 5579 5580 5580 5580 5579 5579 5579 5580 5579 5579 5578 5577 5577 5573 5575 5576 5576 5575 5577 5579 5579 5579 5578 5578 5575 5575 5576 5576 5575 5574 5573 5572 5571
5564 5565 5566 5567 5569 5569 5569 5569 5569 5570 5571 5572 5573 5572 5572 5572 5571 5571 5572 5571 5571 5570 5569 5568 5568 5569 5569 5569 5566 5570 5571 5571 5572 5573 5572 5571 5571 5570 5570 5569 5568 5567 5566 5565
5558 5559 5560 5561 5562 5562 5563 5563 5564 5564 5564 5565 5565 5565 5564 5564 5564 5564 5564 5564 5562 5561 5560 5559 5561 5562 5563 5559 5558 5563 5565 5565 5565 5566 5565 5565 5565 5564 5563 5562 5562 5560 5559 5559
5551 5552 5552 5553 5554 5555 5555 5556 5557 5558 5558 5558 5558 5557 5556 5556 5557 5556 5555 5555 5554 5551 5553 5556 5556 5552 5551 5549 5555 5557 5558 5558 5559 5558 5558 5558 5558 5557 5556 5555 5555 5554 5553 5553
5543 5544 5544 5545 5546 5547 5548 5549 5550 5550 5550 5550 5550 5550 5549 5549 5549 5549 5548 5547 5547 5542 5544 5547 5542 5540 5538 5544 5549 5550 5550 5550 5550 5549 5549 5549 5550 5549 5549 5548 5547 5547 5545 5545
5536 5536 5536 5537 5539 5540 5541 5542 5543 5543 5543 5544 5543 5542 5542 5542 5542 5543 5541 5537 5536 5534 5537 5535 5531 5531 5531 5539 5541 5542 5542 5541 5541 5540 5540 5540 5540 5541 5540 5540 5539 5539 5538 5537
5529 5529 5530 5531 5532 5535 5535 5536 5536 5537 5537 5538 5537 5537 5537 5536 5535 5535 5533 5531 5528 5527 5529 5528 5526 5525 5530 5534 5534 5533 5532 5531 5530 5530 5529 5529 5530 5531 5531 5531 5531 5531 5530 5530
5523 5524 5525 5525 5526 5527 5529 5530 5531 5531 5532 5531 5530 5530 5530 5529 5528 5527 5525 5524 5523 5520 5522 5523 5523 5522 5525 5525 5525 5524 5523 5522 5522 5521 5521 5521 5521 5522 5522 5522 5522 5522 5522 5521
5517 5518 5518 5520 5521 5522 5523 5523 5523 5524 5524 5523 5522 5521 5521 5521 5520 5519 5518 5517 5516 5516 5515 5516 5516 5517 5517 5517 5517 5516 5514 5513 5512 5512 5512 5512 5512 5512 5513 5513 5514 5514 5514 5514